Tracking 31027 objects as of 19-Jul-2025
HD Live streaming from Space Station
objects crossing your sky now

TITAN 34D R/B(2)

Track TITAN 34D R/B(2) now!


NORAD ID: 19983
Int'l Code: 1989-035C
Perigee: 31,583.9 km
Apogee: 40,478.2 km
Inclination: 8.1 °
Period: 1,448.2 minutes
Semi major axis: 42402 km
RCS: Unknown
Launch date: May 10, 1989
Source: United States (US)
Launch site: AIR FORCE EASTERN TEST RANGE (AFETR)

Note: This is a ROCKET BODY
Your satellite tracking list
FENGYUN 1C DEB
Track 1 satellite(s)




NASA's NSSDC Master Catalog

Two Line Element Set (TLE):
1 19983U 89035C   25198.29886708 -.00000296  00000-0  00000-0 0  9996
2 19983   8.0697   4.8675 1048805  51.0863 317.8906  0.99431220 22166
Source of the keplerian elements: McCants